Wind_Speed
27 27 26 26 25 24 23 23 22 21 21 21 21 21 21 20 20 20 20 19 19 18 18 17 17 17 16 16 16 15 15 15 15 15 15 15 15 16 16 17 17 18 18
28 28 27 27 26 25 24 23 23 23 23 23 23 23 23 23 22 22 22 21 21 20 19 19 18 18 18 18 18 18 18 18 18 18 18 19 19 19 19 20 20 21 22
28 29 29 29 28 27 26 25 24 24 25 25 25 24 24 25 25 24 24 23 22 22 21 21 20 20 20 20 20 20 20 20 20 20 21 21 22 22 23 23 24 24 25
30 31 30 29 29 28 28 28 26 26 26 27 27 27 27 26 26 26 25 24 24 23 23 23 22 22 22 22 22 22 22 22 23 23 23 24 25 25 26 26 27 28 29
30 31 31 30 30 30 30 30 30 29 28 29 29 29 28 28 27 27 27 26 26 26 25 25 25 24 24 24 24 24 24 24 25 26 27 27 28 29 29 30 30 31 32
30 30 31 31 32 32 31 32 31 30 30 30 31 31 30 29 29 29 29 28 28 27 27 26 26 26 26 26 27 27 27 27 28 29 30 31 31 32 33 33 34 35 36
30 30 31 32 31 31 32 32 32 30 31 32 32 32 31 31 31 31 31 31 30 29 29 28 29 29 29 29 29 29 29 30 31 32 33 34 34 35 36 37 38 39 39
30 31 30 31 32 32 31 31 31 30 31 32 32 33 32 32 32 32 32 32 32 32 32 31 31 32 32 32 32 32 32 33 34 35 35 36 37 38 38 39 40 40 41
30 31 30 32 32 30 30 31 30 30 29 29 30 31 32 33 33 33 33 34 34 34 34 34 34 34 34 34 34 35 35 36 36 37 38 38 39 39 39 40 41 41 42
28 29 30 30 30 31 30 30 30 30 30 29 29 30 31 33 34 34 34 33 34 34 35 35 35 36 36 37 37 37 38 38 39 39 39 40 40 41 42 42 42 43 43
28 28 29 28 29 30 30 30 29 29 29 29 30 31 32 33 33 34 34 34 34 36 36 35 34 35 36 37 37 37 38 39 40 40 40 40 40 40 42 42 42 42 43
27 28 28 28 29 29 30 29 29 29 29 29 30 30 31 32 33 32 33 34 34 34 34 34 35 36 37 37 37 38 39 39 40 40 40 41 41 41 42 42 42 42 43
27 27 28 28 29 29 29 29 30 29 30 30 29 30 30 31 32 32 32 33 34 34 35 35 34 36 36 37 37 38 39 39 39 40 40 41 41 41 42 42 43 43 44
26 26 26 27 28 28 29 29 28 28 29 29 29 29 30 31 31 31 31 31 32 33 33 34 35 35 36 37 37 37 37 38 38 39 40 41 41 41 42 43 43 44 45
25 26 25 25 25 26 27 28 27 27 28 28 29 30 30 31 32 32 32 31 31 32 33 34 35 36 36 36 37 37 38 38 39 39 40 40 41 42 42 43 43 44 45
24 25 23 22 23 25 26 26 28 27 26 27 28 29 30 31 31 32 31 31 32 32 33 34 35 36 35 35 36 37 38 39 39 40 40 41 41 42 42 42 43 43 44
23 24 23 22 23 24 25 26 27 27 27 26 26 27 27 29 30 31 32 33 34 34 34 35 36 36 36 36 37 37 38 38 39 39 41 41 42 42 42 42 42 42 41
21 22 23 23 23 24 24 25 26 26 26 25 26 26 27 28 29 30 30 31 32 33 34 34 35 37 36 36 37 38 38 39 40 40 41 41 41 41 41 40 40 39 38
21 21 21 22 22 23 23 24 24 25 25 25 25 26 28 28 28 29 29 30 31 32 33 34 34 35 36 36 37 37 38 39 40 40 40 41 40 40 38 38 37 36 35
22 22 22 21 22 22 22 23 23 24 24 24 26 26 26 27 28 28 29 30 30 31 32 33 34 35 36 36 37 37 38 39 39 39 39 38 37 36 35 34 34 33 32
21 22 22 22 22 21 21 22 22 23 24 24 25 26 27 27 27 28 29 29 30 30 31 33 34 34 35 35 36 37 37 37 37 37 36 35 34 32 32 31 31 30 29
19 20 21 21 21 21 21 21 22 23 23 23 24 25 25 26 27 27 27 28 28 29 30 31 32 33 33 34 35 35 35 34 34 33 32 31 30 29 28 28 28 27 26
17 17 17 17 18 18 19 19 19 20 21 21 22 23 23 23 24 24 25 26 26 27 28 29 29 30 31 31 31 31 31 31 30 30 29 28 27 26 26 25 24 24 24
15 14 14 15 15 15 15 16 17 17 18 19 19 20 20 21 22 23 23 24 24 25 26 26 27 27 28 28 28 28 27 27 26 25 25 25 24 24 24 23 22 22 21
13 13 13 14 14 14 14 15 15 15 16 16 17 17 18 19 19 20 20 21 22 22 22 22 23 24 23 23 23 23 23 23 22 22 22 22 22 21 21 20 20 20 20
11 11 11 11 11 11 12 12 12 13 13 14 15 15 16 17 17 18 18 19 19 19 19 20 19 19 19 19 19 19 20 20 20 20 19 19 19 19 18 18 18 18 17
Wind_Direction
256 254 254 255 255 254 256 256 253 253 253 254 253 252 252 253 252 249 248 246 246 247 249 251 252 254 257 260 263 264 265 267 269 268 267 268 270 271 272 272 272 272 273
259 255 255 256 256 255 254 254 253 253 252 253 253 253 253 253 252 250 249 248 248 248 250 252 254 255 259 262 264 265 266 266 267 268 269 270 270 272 272 273 273 274 274
257 256 255 256 256 257 256 254 254 255 253 253 253 253 254 253 252 250 249 249 249 248 250 252 254 257 260 263 265 266 267 267 267 268 269 270 270 271 272 273 274 275 276
259 257 256 256 256 258 256 254 255 256 255 254 253 255 255 252 251 250 249 249 249 249 250 252 254 257 261 263 265 267 268 267 268 268 269 270 272 272 273 274 275 275 276
257 256 255 257 256 257 256 254 254 256 256 254 255 257 256 253 251 250 250 248 248 249 251 253 255 258 260 262 264 266 268 269 269 269 271 272 274 274 275 275 276 276 277
257 256 256 258 257 256 257 255 254 256 256 254 255 256 255 253 250 251 250 247 248 249 251 252 255 258 261 263 264 266 267 269 269 271 274 275 275 276 276 276 277 277 277
257 257 257 258 258 257 256 256 255 255 255 255 255 255 253 249 248 249 247 247 247 249 252 252 254 256 260 263 264 266 268 269 270 273 274 276 276 276 276 277 277 277 277
256 258 256 254 255 256 256 253 254 255 256 255 254 253 252 249 249 249 248 249 248 249 251 252 254 258 260 262 264 267 269 270 272 275 276 276 276 277 278 277 278 278 279
257 256 255 255 253 253 254 252 253 253 253 252 252 251 250 248 247 248 248 248 248 250 252 253 257 258 260 263 265 267 270 271 273 274 275 276 277 278 278 278 279 280 280
257 254 253 255 253 254 254 254 255 253 251 249 248 248 248 246 247 247 247 247 248 249 252 255 257 259 261 262 264 267 270 271 272 273 274 275 276 277 278 280 280 280 280
257 254 254 255 254 255 255 255 254 254 252 250 248 249 247 245 247 246 245 247 249 251 253 255 258 259 261 263 264 267 270 272 272 273 274 275 277 278 280 280 280 281 282
258 257 257 256 255 254 252 251 252 251 250 249 248 247 245 246 247 245 245 246 249 253 255 257 258 259 260 263 264 267 270 271 272 272 272 274 277 279 280 280 281 282 283
260 257 257 256 256 254 252 249 249 247 247 246 247 247 247 247 244 245 247 247 250 254 257 258 259 260 263 265 266 268 270 271 272 272 273 275 278 279 280 282 283 284 285
260 258 258 259 258 255 251 248 247 246 244 243 243 244 245 245 244 246 249 252 254 255 257 258 259 263 265 266 268 271 271 271 272 274 276 278 280 281 282 284 285 286 287
261 260 260 259 255 251 250 248 246 246 244 245 242 241 242 243 243 245 250 254 255 257 258 258 261 264 266 267 269 272 273 273 274 276 278 280 282 284 285 286 287 289 289
261 259 256 256 253 251 249 248 248 247 246 245 245 244 245 245 247 248 249 250 253 257 259 261 264 266 267 269 271 273 274 276 277 279 280 283 285 287 288 289 290 290 292
260 259 256 253 251 251 248 245 247 250 250 250 250 250 251 251 252 251 252 254 256 258 261 263 265 267 270 272 274 274 276 278 280 282 284 285 288 290 290 290 291 292 292
259 258 256 255 253 250 250 248 246 249 251 251 252 253 253 253 254 254 256 258 261 262 263 265 268 270 271 273 274 276 278 280 282 284 286 287 289 290 291 291 292 293 293
257 256 254 254 253 251 250 250 249 251 252 254 254 255 256 257 259 259 260 262 264 265 266 268 270 271 274 275 278 279 281 283 285 286 287 288 289 290 291 291 292 292 293
257 256 255 254 254 255 255 255 254 252 254 256 257 258 261 262 264 263 263 264 266 267 268 270 272 275 277 280 282 283 284 285 286 287 287 289 290 291 291 292 292 292 293
259 257 257 257 255 255 255 257 257 258 259 260 262 262 262 264 265 266 267 269 270 272 275 276 277 278 281 282 283 284 285 286 287 288 289 291 291 292 292 292 292 292 292
260 258 258 257 254 255 258 259 260 261 262 264 266 267 268 270 271 273 274 276 277 278 279 280 280 281 282 283 283 285 286 288 289 290 291 292 293 293 293 292 292 292 292
262 260 259 258 258 259 259 260 262 263 264 265 267 269 270 272 274 277 278 280 281 282 282 283 284 284 284 284 285 287 289 290 291 292 292 292 292 291 292 291 292 292 292
262 260 260 260 259 261 261 264 265 266 268 271 272 274 275 275 278 280 280 282 284 285 285 285 286 287 287 288 289 290 291 292 292 291 291 291 290 290 290 291 291 291 291
259 256 257 259 258 260 263 267 268 269 270 273 274 276 278 280 283 284 284 285 286 286 287 288 289 290 290 292 293 294 293 292 291 290 290 291 291 290 290 291 291 290 291
253 253 255 258 259 260 263 267 269 271 272 276 278 281 283 283 285 285 285 287 288 290 292 293 294 296 297 297 296 295 295 294 293 292 292 292 292 292 292 292 291 291 291
Height
5876 5876 5877 5878 5879 5880 5881 5882 5883 5883 5884 5884 5885 5885 5886 5887 5888 5888 5889 5890 5891 5892 5892 5893 5893 5894 5894 5895 5895 5895 5895 5895 5895 5895 5894 5894 5894 5893 5893 5892 5892 5891 5891
5869 5870 5871 5872 5873 5874 5875 5877 5878 5878 5879 5879 5880 5881 5882 5882 5883 5884 5885 5885 5886 5887 5889 5889 5890 5890 5890 5891 5891 5891 5891 5891 5891 5891 5891 5890 5890 5889 5889 5888 5887 5887 5886
5863 5863 5865 5866 5867 5868 5870 5871 5872 5873 5874 5874 5875 5876 5877 5878 5879 5879 5880 5881 5881 5883 5884 5885 5886 5886 5886 5886 5887 5887 5887 5887 5887 5886 5886 5886 5885 5884 5884 5883 5882 5882 5881
5857 5858 5859 5860 5861 5862 5863 5865 5866 5867 5868 5869 5869 5870 5871 5872 5873 5874 5875 5876 5877 5878 5879 5880 5880 5881 5881 5882 5882 5882 5882 5882 5882 5881 5881 5880 5880 5879 5878 5878 5877 5876 5875
5849 5851 5852 5854 5854 5855 5857 5858 5859 5861 5861 5862 5863 5864 5865 5866 5867 5868 5869 5870 5871 5872 5873 5874 5875 5876 5876 5876 5877 5876 5876 5876 5876 5876 5875 5875 5874 5873 5872 5871 5870 5869 5868
5842 5844 5845 5846 5847 5848 5850 5851 5852 5853 5854 5855 5856 5857 5859 5860 5861 5862 5864 5865 5866 5867 5868 5869 5869 5870 5870 5871 5871 5871 5871 5870 5870 5870 5869 5868 5867 5866 5865 5864 5863 5861 5860
5836 5837 5838 5840 5841 5841 5842 5843 5845 5846 5847 5848 5849 5850 5851 5853 5854 5856 5857 5859 5860 5861 5862 5862 5863 5864 5864 5864 5864 5864 5864 5864 5863 5863 5862 5861 5860 5859 5858 5856 5855 5853 5851
5829 5830 5831 5832 5833 5834 5834 5835 5837 5838 5839 5840 5842 5842 5844 5846 5847 5849 5850 5852 5854 5855 5855 5856 5857 5857 5858 5858 5858 5858 5857 5857 5856 5855 5854 5853 5852 5851 5849 5848 5846 5844 5842
5822 5823 5824 5825 5825 5826 5827 5828 5829 5830 5832 5833 5834 5835 5837 5839 5840 5842 5843 5845 5847 5848 5849 5849 5850 5850 5850 5851 5851 5851 5850 5849 5848 5847 5846 5845 5843 5842 5840 5838 5837 5835 5833
5814 5815 5816 5817 5818 5819 5820 5820 5821 5823 5824 5825 5827 5828 5830 5832 5833 5835 5836 5838 5839 5840 5841 5842 5842 5842 5842 5843 5843 5843 5842 5841 5840 5838 5837 5836 5834 5833 5831 5829 5827 5825 5823
5808 5809 5809 5810 5811 5812 5812 5813 5814 5815 5816 5818 5819 5820 5822 5824 5825 5827 5829 5830 5832 5833 5834 5834 5835 5834 5834 5834 5834 5834 5833 5832 5831 5829 5828 5827 5825 5823 5821 5819 5817 5815 5813
5802 5802 5802 5803 5804 5804 5805 5806 5807 5808 5809 5811 5812 5813 5815 5817 5819 5820 5822 5823 5824 5825 5826 5826 5826 5826 5826 5826 5825 5825 5824 5823 5821 5820 5819 5817 5815 5814 5812 5810 5807 5805 5802
5795 5795 5796 5796 5797 5797 5798 5799 5800 5801 5802 5804 5805 5807 5808 5810 5811 5813 5814 5815 5816 5817 5818 5818 5818 5818 5818 5817 5816 5816 5815 5813 5812 5811 5809 5808 5806 5804 5802 5800 5797 5795 5792
5788 5789 5789 5789 5790 5790 5791 5792 5793 5794 5796 5797 5799 5800 5801 5803 5804 5806 5807 5808 5808 5809 5809 5810 5810 5809 5809 5808 5808 5807 5806 5804 5803 5802 5800 5798 5796 5794 5792 5790 5787 5784 5781
5782 5782 5782 5783 5783 5784 5785 5786 5787 5788 5789 5791 5792 5793 5794 5795 5797 5799 5800 5801 5802 5801 5801 5802 5802 5801 5800 5799 5799 5798 5797 5795 5794 5793 5791 5789 5787 5785 5782 5780 5777 5774 5771
5776 5776 5776 5777 5778 5778 5779 5780 5781 5782 5784 5785 5785 5787 5788 5789 5790 5791 5792 5793 5793 5794 5794 5794 5794 5793 5792 5791 5790 5789 5788 5787 5785 5783 5782 5779 5777 5775 5772 5770 5767 5764 5761
5770 5771 5771 5771 5772 5773 5774 5775 5776 5777 5778 5778 5779 5780 5781 5782 5783 5784 5785 5785 5786 5786 5786 5786 5785 5785 5784 5783 5782 5780 5779 5778 5776 5774 5772 5770 5767 5765 5762 5760 5757 5754 5751
5765 5765 5765 5766 5767 5768 5768 5769 5770 5771 5772 5773 5773 5774 5775 5776 5777 5777 5778 5778 5778 5778 5778 5778 5777 5776 5776 5775 5773 5772 5770 5769 5767 5765 5762 5760 5758 5755 5752 5750 5747 5744 5741
5759 5759 5760 5761 5761 5762 5763 5764 5764 5765 5766 5767 5767 5768 5769 5769 5770 5770 5770 5771 5771 5771 5770 5770 5769 5768 5767 5766 5764 5763 5761 5759 5757 5755 5753 5751 5748 5745 5743 5740 5738 5735 5732
5754 5754 5755 5755 5756 5756 5757 5758 5759 5760 5760 5761 5762 5762 5762 5763 5763 5763 5764 5764 5763 5763 5762 5762 5761 5760 5759 5757 5756 5754 5752 5750 5748 5746 5744 5741 5739 5736 5734 5731 5729 5727 5724
5748 5749 5749 5750 5751 5751 5752 5753 5753 5754 5755 5755 5755 5756 5756 5756 5757 5757 5757 5756 5756 5755 5754 5754 5753 5752 5750 5749 5747 5745 5744 5742 5740 5737 5735 5732 5730 5728 5725 5723 5721 5719 5716
5743 5743 5744 5744 5745 5746 5746 5747 5748 5748 5749 5749 5750 5750 5750 5750 5750 5750 5750 5749 5749 5748 5747 5746 5745 5744 5742 5741 5739 5737 5735 5734 5732 5729 5727 5724 5722 5720 5718 5716 5714 5711 5709
5738 5738 5739 5739 5740 5741 5741 5742 5743 5743 5744 5744 5744 5744 5744 5744 5744 5744 5743 5743 5742 5741 5740 5739 5738 5736 5735 5733 5731 5729 5727 5725 5723 5721 5719 5717 5715 5713 5711 5709 5707 5705 5703
5733 5734 5734 5735 5736 5736 5737 5737 5738 5738 5739 5739 5739 5739 5739 5739 5738 5738 5737 5737 5735 5734 5733 5732 5731 5729 5728 5726 5724 5722 5720 5718 5716 5714 5712 5710 5708 5707 5704 5703 5701 5699 5697
5729 5730 5730 5731 5731 5732 5732 5733 5733 5734 5734 5734 5734 5734 5734 5734 5733 5732 5732 5731 5730 5728 5727 5726 5724 5722 5721 5719 5717 5715 5713 5711 5710 5708 5706 5704 5702 5700 5699 5697 5695 5694 5692
5726 5726 5727 5727 5728 5728 5728 5729 5730 5730 5730 5730 5730 5729 5729 5729 5728 5727 5727 5725 5724 5723 5721 5720 5718 5717 5715 5713 5711 5709 5707 5706 5704 5703 5700 5699 5697 5696 5694 5692 5691 5689 5688